Location: Taukkyan
(23.1052°N, 94.0030°E)
Time: 22:50:12
(UTC+00:00)

Meteor 1-5 Rocket - Pass Details

Date: 06 July 2020
Orbit: 790 x 915 km, 81.2° (Epoch: 05 August)

Event Time Altitude Azimuth Distance (km) Brightness Sun altitude
Exits shadow 20:25:54 62° 7° (N) 928 4.5 -30.5°
Drops below altitude 10° 20:30:32 10° 7° (N) 2,474 7.2 -29.7°
Sets 20:33:00 0° 7° (N) 3,431 8.1 -29.4°
